CW1020 Weather Reports


Display with metric or nautical units.
time (UTC)temp
F
wind
direction
speed
MPH
gust
MPH
rain 1hr
in
rain 24hr
in
rain mn
in
humidity
%
barometer
mb
20220520005012 77 279 14.0 29.0 0.00 0.00 0.00 30 1012.2
20220520004508 77 290 15.0 32.0 0.00 0.00 0.00 32 1012.1
20220520004006 77 254 20.0 31.0 0.00 0.00 0.00 32 1012.2
20220520003521 77 295 13.0 26.0 0.00 0.00 0.00 32 1012.3
20220520003020 77 296 18.0 29.0 0.00 0.00 0.00 32 1012.4
20220520002515 77 257 17.0 30.0 0.00 0.00 0.00 33 1012.5
20220520002016 77 252 17.0 30.0 0.00 0.00 0.00 32 1012.6
20220520001509 78 285 17.0 34.0 0.00 0.00 0.00 32 1012.6
20220520001006 78 271 21.0 34.0 0.00 0.00 0.00 31 1012.8
20220520000524 78 297 16.0 23.0 0.00 0.00 0.00 31 1012.9
20220520000022 78 270 17.0 31.0 0.00 0.00 0.00 30 1013.0
20220519235512 79 263 24.0 31.0 0.00 0.00 0.00 30 1013.1
20220519235008 79 319 13.0 21.0 0.00 0.00 0.00 29 1013.0
20220519234525 79 296 11.0 18.0 0.00 0.00 0.00 29 1013.2
20220519234024 79 315 12.0 25.0 0.00 0.00 0.00 29 1013.3
20220519233520 79 285 16.0 25.0 0.00 0.00 0.00 28 1013.4
20220519233018 79 279 11.0 22.0 0.00 0.00 0.00 30 1013.5
20220519232514 79 293 12.0 22.0 0.00 0.00 0.00 30 1013.5
20220519232012 79 317 9.0 18.0 0.00 0.00 0.00 30 1013.5
20220519231525 79 265 12.0 21.0 0.00 0.00 0.00 29 1013.7
20220519231019 79 296 12.0 21.0 0.00 0.00 0.00 29 1013.6
20220519230518 80 343 13.0 19.0 0.00 0.00 0.00 29 1013.7
20220519230019 79 304 12.0 19.0 0.00 0.00 0.00 29 1014.0
20220519225512 79 301 10.0 18.0 0.00 0.00 0.00 29 1014.0
20220519225008 78 308 9.0 22.0 0.00 0.00 0.00 30 1014.2
20220519224510 79 309 14.0 20.0 0.00 0.00 0.00 28 1014.2
20220519224007 80 344 12.0 20.0 0.00 0.00 0.00 28 1014.3
20220519223509 79 281 14.0 19.0 0.00 0.00 0.00 28 1014.5
20220519223022 80 323 11.0 17.0 0.00 0.00 0.00 28 1014.5
20220519222521 80 329 10.0 19.0 0.00 0.00 0.00 29 1014.8
20220519222022 79 289 12.0 19.0 0.00 0.00 0.00 29 1014.8
20220519221520 79 346 8.0 21.0 0.00 0.00 0.00 29 1014.9
20220519221015 80 293 9.0 26.0 0.00 0.00 0.00 31 1015.1
20220519220517 80 283 12.0 25.0 0.00 0.00 0.00 29 1015.1
20220519220013 79 287 16.0 26.0 0.00 0.00 0.00 29 1015.1
20220519215513 80 315 14.0 26.0 0.00 0.00 0.00 29 1015.2
20220519215009 79 320 7.0 18.0 0.00 0.00 0.00 31 1015.2
20220519214510 79 286 13.0 18.0 0.00 0.00 0.00 32 1015.4
20220519214010 79 298 14.0 18.0 0.00 0.00 0.00 31 1015.5
20220519213527 79 270 13.0 20.0 0.00 0.00 0.00 32 1015.5
20220519213019 79 315 14.0 20.0 0.00 0.00 0.00 30 1015.5
20220519212513 79 289 14.0 21.0 0.00 0.00 0.00 31 1015.5
20220519212008 79 273 12.0 22.0 0.00 0.00 0.00 31 1015.6
20220519211525 80 299 17.0 22.0 0.00 0.00 0.00 29 1015.6
20220519211017 79 281 12.0 22.0 0.00 0.00 0.00 31 1015.7
20220519210513 79 304 15.0 22.0 0.00 0.00 0.00 31 1015.6
20220519210009 79 286 11.0 20.0 0.00 0.00 0.00 31 1015.7
20220519205524 79 289 12.0 23.0 0.00 0.00 0.00 30 1015.7
20220519205012 79 283 17.0 23.0 0.00 0.00 0.00 31 1015.7
20220519204509 79 306 6.0 19.0 0.00 0.00 0.00 33 1015.8
20220519204022 79 308 10.0 16.0 0.00 0.00 0.00 34 1015.8
20220519203518 79 289 8.0 18.0 0.00 0.00 0.00 32 1015.9
20220519203012 79 296 11.0 23.0 0.00 0.00 0.00 32 1015.9
20220519202526 79 302 15.0 23.0 0.00 0.00 0.00 32 1015.8
20220519202022 79 234 11.0 20.0 0.00 0.00 0.00 32 1016.1
20220519201519 78 240 13.0 17.0 0.00 0.00 0.00 33 1016.1
20220519201011 78 323 9.0 13.0 0.00 0.00 0.00 34 1016.1
20220519200527 78 333 8.0 14.0 0.00 0.00 0.00 35 1016.2
20220519200022 78 287 8.0 14.0 0.00 0.00 0.00 36 1016.4
20220519195518 77 257 10.0 16.0 0.00 0.00 0.00 36 1016.4
20220519195009 77 290 8.0 16.0 0.00 0.00 0.00 36 1016.5
20220519194524 76 286 10.0 14.0 0.00 0.00 0.00 37 1016.5
20220519194019 76 319 6.0 13.0 0.00 0.00 0.00 37 1016.5
20220519193513 76 105 5.0 13.0 0.00 0.00 0.00 38 1016.6
20220519193023 76 313 6.0 12.0 0.00 0.00 0.00 38 1016.6
20220519192518 75 24 6.0 14.0 0.00 0.00 0.00 37 1016.8
20220519192015 75 325 9.0 14.0 0.00 0.00 0.00 38 1016.7
20220519191513 75 279 5.0 16.0 0.00 0.00 0.00 39 1017.0
20220519191024 74 290 5.0 16.0 0.00 0.00 0.00 41 1017.0
20220519190519 74 321 10.0 16.0 0.00 0.00 0.00 40 1017.0
20220519190016 75 285 12.0 17.0 0.00 0.00 0.00 40 1017.1
20220519185509 74 306 9.0 17.0 0.00 0.00 0.00 41 1017.0
20220519185018 75 313 8.0 12.0 0.00 0.00 0.00 41 1017.1
20220519184516 75 335 8.0 12.0 0.00 0.00 0.00 41 1017.1
20220519184014 74 155 7.0 12.0 0.00 0.00 0.00 41 1017.3
20220519183508 74 224 6.0 10.0 0.00 0.00 0.00 40 1017.4
20220519183018 73 288 4.0 15.0 0.00 0.00 0.00 43 1017.3
20220519182509 73 331 9.0 15.0 0.00 0.00 0.00 43 1017.4
20220519182022 74 329 6.0 13.0 0.00 0.00 0.00 42 1017.4
20220519181516 74 277 3.0 9.0 0.00 0.00 0.00 42 1017.5
20220519181024 73 320 5.0 15.0 0.00 0.00 0.00 41 1017.6
20220519180516 73 319 7.0 15.0 0.00 0.00 0.00 40 1017.6
20220519180029 73 286 9.0 15.0 0.00 0.00 0.00 41 1017.6
20220519175516 74 270 9.0 15.0 0.00 0.00 0.00 40 1017.7
20220519175009 73 277 7.0 14.0 0.00 0.00 0.00 40 1017.7
20220519174522 73 257 7.0 14.0 0.00 0.00 0.00 41 1017.7
20220519174014 73 230 8.0 14.0 0.00 0.00 0.00 41 1017.7
20220519173523 72 274 9.0 17.0 0.00 0.00 0.00 41 1017.7
20220519173011 72 247 9.0 15.0 0.00 0.00 0.00 41 1017.9
20220519172522 72 193 9.0 19.0 0.00 0.00 0.00 41 1017.9
20220519172013 72 197 11.0 19.0 0.00 0.00 0.00 42 1018.0
20220519171523 71 234 10.0 18.0 0.00 0.00 0.00 42 1018.0
20220519171014 71 255 8.0 19.0 0.00 0.00 0.00 42 1018.0
20220519170528 71 238 11.0 21.0 0.00 0.00 0.00 43 1018.1
20220519170016 70 241 13.0 21.0 0.00 0.00 0.00 43 1018.1
20220519165525 70 248 12.0 21.0 0.00 0.00 0.00 43 1018.1
20220519165018 70 194 11.0 21.0 0.00 0.00 0.00 42 1018.3
20220519164511 70 244 13.0 21.0 0.00 0.00 0.00 42 1018.2
20220519164019 69 243 12.0 21.0 0.00 0.00 0.00 43 1018.2
20220519163513 70 182 12.0 18.0 0.00 0.00 0.00 42 1018.2
20220519163022 70 223 12.0 18.0 0.00 0.00 0.00 42 1018.5
20220519162512 70 200 11.0 18.0 0.00 0.00 0.00 41 1018.5
20220519162019 70 224 9.0 19.0 0.00 0.00 0.00 42 1018.6
20220519161513 69 298 12.0 19.0 0.00 0.00 0.00 43 1018.6
20220519161025 69 278 5.0 12.0 0.00 0.00 0.00 42 1018.8
20220519160518 69 294 0.0 8.0 0.00 0.00 0.00 42 1018.8
20220519160024 69 338 4.0 9.0 0.00 0.00 0.00 42 1018.8
20220519155514 69 312 6.0 11.0 0.00 0.00 0.00 42 1018.8
20220519155027 69 311 4.0 12.0 0.00 0.00 0.00 42 1018.8
20220519154518 69 293 4.0 12.0 0.00 0.00 0.00 42 1018.7
20220519154025 69 343 3.0 9.0 0.00 0.00 0.00 42 1018.7
20220519153517 69 346 3.0 9.0 0.00 0.00 0.00 42 1018.7
20220519153026 69 324 4.0 9.0 0.00 0.00 0.00 42 1018.7
20220519152512 68 182 5.0 9.0 0.00 0.00 0.00 42 1018.6
20220519152022 68 269 2.0 9.0 0.00 0.00 0.00 43 1018.7
20220519151515 68 179 2.0 5.0 0.00 0.00 0.00 43 1018.7
20220519151028 67 328 2.0 10.0 0.00 0.00 0.00 44 1018.7
20220519150513 67 325 4.0 10.0 0.00 0.00 0.00 44 1018.6
20220519150028 67 333 5.0 9.0 0.00 0.00 0.00 44 1018.7
20220519145520 67 333 2.0 5.0 0.00 0.00 0.00 44 1018.7
20220519145017 67 28 3.0 10.0 0.00 0.00 0.00 44 1018.8
20220519144528 67 250 5.0 13.0 0.00 0.00 0.00 43 1018.8
20220519144022 67 250 8.0 16.0 0.00 0.00 0.00 44 1018.7
20220519143513 66 241 9.0 16.0 0.00 0.00 0.00 44 1018.8
20220519143027 66 232 7.0 15.0 0.00 0.00 0.00 44 1018.8
20220519142515 66 245 7.0 14.0 0.00 0.00 0.00 44 1018.8
20220519142028 66 244 6.0 14.0 0.00 0.00 0.00 45 1018.8
20220519141523 65 254 7.0 12.0 0.00 0.00 0.00 45 1018.8
20220519141018 65 238 5.0 12.0 0.00 0.00 0.00 45 1018.8
20220519140509 65 248 8.0 12.0 0.00 0.00 0.00 45 1018.8
20220519140020 65 229 9.0 13.0 0.00 0.00 0.00 45 1018.7
20220519135516 65 211 6.0 12.0 0.00 0.00 0.00 46 1018.7
20220519135012 65 234 6.0 13.0 0.00 0.00 0.00 46 1018.7
20220519134523 64 233 9.0 13.0 0.00 0.00 0.00 46 1018.8
20220519134018 64 247 7.0 12.0 0.00 0.00 0.00 47 1018.7
20220519133512 64 243 6.0 10.0 0.00 0.00 0.00 47 1018.7
20220519133017 64 248 7.0 11.0 0.00 0.00 0.00 47 1018.8
20220519132511 64 265 8.0 10.0 0.00 0.00 0.00 46 1018.8
20220519132026 64 244 8.0 11.0 0.00 0.00 0.00 46 1018.7
20220519131519 64 259 6.0 13.0 0.00 0.00 0.00 46 1018.7
20220519131011 64 261 8.0 13.0 0.00 0.00 0.00 46 1018.6
20220519130525 63 257 9.0 11.0 0.00 0.00 0.00 46 1018.6
20220519130018 63 243 8.0 14.0 0.00 0.00 0.00 45 1018.6
20220519125528 63 255 10.0 14.0 0.00 0.00 0.00 45 1018.6
20220519125016 63 248 9.0 13.0 0.00 0.00 0.00 46 1018.5
20220519124528 62 242 9.0 13.0 0.00 0.00 0.00 47 1018.5
20220519124021 61 259 8.0 13.0 0.00 0.00 0.00 48 1018.6
20220519123514 60 232 9.0 13.0 0.00 0.00 0.00 50 1018.5
20220519123023 59 246 5.0 11.0 0.00 0.00 0.00 51 1018.5
20220519122514 59 240 5.0 9.0 0.00 0.00 0.00 51 1018.5
20220519122028 59 287 3.0 9.0 0.00 0.00 0.00 52 1018.5
20220519121522 59 248 4.0 8.0 0.00 0.00 0.00 52 1018.5
20220519121009 59 271 5.0 7.0 0.00 0.00 0.00 51 1018.6
20220519120523 59 272 0.0 3.0 0.00 0.00 0.00 52 1018.6
20220519120018 59 259 0.0 0.0 0.00 0.00 0.00 51 1018.6
20220519115513 59 246 0.0 0.0 0.00 0.00 0.00 51 1018.6
20220519115028 59 246 0.0 0.0 0.00 0.00 0.00 52 1018.7
20220519114526 59 246 0.0 0.0 0.00 0.00 0.00 51 1018.7
20220519114021 59 246 0.0 0.0 0.00 0.00 0.00 51 1018.7
20220519113516 59 246 0.0 0.0 0.00 0.00 0.00 51 1018.6
20220519113024 59 246 0.0 0.0 0.00 0.00 0.00 51 1018.7
20220519112518 59 240 0.0 0.0 0.00 0.00 0.00 51 1018.7
20220519112013 59 240 0.0 0.0 0.00 0.00 0.00 52 1018.7
20220519111525 59 239 0.0 0.0 0.00 0.00 0.00 51 1018.7
20220519111020 59 239 0.0 0.0 0.00 0.00 0.00 52 1018.7
20220519110515 59 239 0.0 0.0 0.00 0.00 0.00 52 1018.8
20220519110013 59 240 0.0 0.0 0.00 0.00 0.00 52 1018.7
20220519105522 59 233 0.0 3.0 0.00 0.00 0.00 52 1018.7
20220519105017 59 232 1.0 3.0 0.00 0.00 0.00 52 1018.8
20220519104513 59 252 0.0 6.0 0.00 0.00 0.00 52 1018.8
20220519104028 59 246 1.0 6.0 0.00 0.00 0.00 52 1018.8
20220519103520 59 277 2.0 3.0 0.00 0.00 0.00 52 1018.8
20220519103017 59 277 1.0 2.0 0.00 0.00 0.00 52 1018.9
20220519102513 59 277 0.0 3.0 0.00 0.00 0.00 52 1018.9
20220519102010 59 277 2.0 4.0 0.00 0.00 0.00 52 1018.9
20220519101523 58 315 0.0 4.0 0.00 0.00 0.00 52 1018.8
20220519101018 58 271 0.0 4.0 0.00 0.00 0.00 53 1018.9
20220519100513 58 313 1.0 4.0 0.00 0.00 0.00 53 1018.9
20220519100030 57 304 3.0 4.0 0.00 0.00 0.00 54 1018.9
20220519095519 57 277 3.0 4.0 0.00 0.00 0.00 54 1018.9
20220519095015 58 309 2.0 4.0 0.00 0.00 0.00 53 1018.8
20220519094510 58 317 0.0 2.0 0.00 0.00 0.00 53 1018.8
20220519094026 58 318 0.0 4.0 0.00 0.00 0.00 52 1018.9
20220519093518 58 318 1.0 4.0 0.00 0.00 0.00 52 1018.9
20220519093014 59 304 0.0 3.0 0.00 0.00 0.00 52 1018.9
20220519092527 59 304 0.0 4.0 0.00 0.00 0.00 52 1019.1
20220519092022 59 316 2.0 4.0 0.00 0.00 0.00 52 1019.0
20220519091513 59 274 0.0 4.0 0.00 0.00 0.00 51 1019.1
20220519091028 59 308 0.0 0.0 0.00 0.00 0.00 51 1019.1
20220519090524 59 308 0.0 0.0 0.00 0.00 0.00 51 1019.1
20220519090020 59 309 0.0 0.0 0.00 0.00 0.00 49 1019.2
20220519085529 59 312 0.0 0.0 0.00 0.00 0.00 49 1019.2
20220519085023 60 312 0.0 0.0 0.00 0.00 0.00 49 1019.4
20220519084520 60 313 0.0 3.0 0.00 0.00 0.00 49 1019.4
20220519084016 60 313 1.0 7.0 0.00 0.00 0.00 49 1019.4
20220519083528 60 274 2.0 7.0 0.00 0.00 0.00 49 1019.4
20220519083022 60 288 2.0 3.0 0.00 0.00 0.00 48 1019.5
20220519082515 60 296 2.0 3.0 0.00 0.00 0.00 49 1019.6
20220519082011 59 302 1.0 3.0 0.00 0.00 0.00 49 1019.7
20220519081522 59 302 2.0 5.0 0.00 0.00 0.00 49 1019.7
20220519081018 59 286 3.0 5.0 0.00 0.00 0.00 49 1019.7
20220519080512 59 285 0.0 0.0 0.00 0.00 0.00 49 1019.8
20220519080027 59 285 0.0 0.0 0.00 0.00 0.00 49 1019.8
20220519075518 59 280 0.0 0.0 0.00 0.00 0.00 49 1019.8
20220519075013 59 280 0.0 0.0 0.00 0.00 0.00 49 1019.9
20220519074528 59 281 0.0 0.0 0.00 0.00 0.00 49 1019.9
20220519074023 59 281 0.0 0.0 0.00 0.00 0.00 49 1019.9
20220519073516 59 271 0.0 0.0 0.00 0.00 0.00 49 1019.9
20220519073029 59 271 0.0 0.0 0.00 0.00 0.00 48 1019.9
20220519072522 59 271 0.0 0.0 0.00 0.00 0.00 48 1020.0
20220519072018 59 271 0.0 0.0 0.00 0.00 0.00 48 1019.9
20220519071529 59 271 0.0 0.0 0.00 0.00 0.00 49 1020.0
20220519071024 59 271 0.0 0.0 0.00 0.00 0.00 49 1020.0
20220519070518 59 271 0.0 0.0 0.00 0.00 0.00 49 1020.0
20220519070033 59 271 0.0 0.0 0.00 0.00 0.00 47 1020.1
20220519065514 60 271 0.0 7.0 0.00 0.00 0.00 48 1020.1
20220519065010 60 269 0.0 7.0 0.00 0.00 0.00 49 1020.1
20220519064525 60 244 0.0 3.0 0.00 0.00 0.00 49 1020.2
20220519064021 60 212 0.0 3.0 0.00 0.00 0.00 47 1020.2
20220519063513 60 261 0.0 1.0 0.00 0.00 0.00 47 1020.4
20220519063025 60 184 0.0 0.0 0.00 0.00 0.00 46 1020.3
20220519062519 60 184 0.0 0.0 0.00 0.00 0.00 48 1020.5
20220519062014 61 184 0.0 0.0 0.00 0.00 0.00 47 1020.5
20220519061525 61 184 0.0 0.0 0.00 0.00 0.00 47 1020.5
20220519061021 61 181 0.0 0.0 0.00 0.00 0.00 47 1020.5
20220519060517 62 181 0.0 0.0 0.00 0.00 0.00 47 1020.6
20220519060017 62 181 0.0 0.0 0.00 0.00 0.00 46 1020.6
20220519055529 62 181 0.0 0.0 0.00 0.00 0.00 45 1020.6
20220519055024 62 181 0.0 0.0 0.00 0.00 0.00 44 1020.7
20220519054522 63 182 0.0 0.0 0.00 0.00 0.00 45 1020.6
20220519054019 63 181 0.0 0.0 0.00 0.00 0.00 46 1020.7
20220519053514 63 181 0.0 0.0 0.00 0.00 0.00 44 1020.7
20220519053013 63 181 0.0 0.0 0.00 0.00 0.00 46 1020.8
20220519052529 64 181 0.0 0.0 0.00 0.00 0.00 46 1020.8
20220519052023 64 181 0.0 0.0 0.00 0.00 0.00 45 1020.8
20220519051517 64 248 0.0 0.0 0.00 0.00 0.00 45 1020.8
20220519051013 64 248 0.0 0.0 0.00 0.00 0.00 46 1020.8
20220519050511 64 248 0.0 0.0 0.00 0.00 0.00 45 1020.8
20220519050030 65 248 0.0 0.0 0.00 0.00 0.00 45 1020.8
20220519045521 65 252 0.0 0.0 0.00 0.00 0.00 45 1020.8
20220519045019 65 303 0.0 0.0 0.00 0.00 0.00 44 1020.7
20220519044518 66 304 0.0 0.0 0.00 0.00 0.00 44 1020.7
20220519044014 66 304 0.0 0.0 0.00 0.00 0.00 43 1020.7
20220519043528 66 304 0.0 0.0 0.00 0.00 0.00 43 1020.7
20220519043026 66 304 0.0 0.0 0.00 0.00 0.00 43 1020.8
20220519042522 66 304 0.0 0.0 0.00 0.00 0.00 42 1020.7
20220519042019 67 304 0.0 0.0 0.00 0.00 0.00 42 1020.7
20220519041530 67 344 0.0 3.0 0.00 0.00 0.00 41 1020.7
20220519041028 67 344 1.0 4.0 0.00 0.00 0.00 41 1020.7
20220519040524 67 344 1.0 4.0 0.00 0.00 0.00 41 1020.7
20220519040022 67 343 0.0 4.0 0.00 0.00 0.00 41 1020.5
20220519035517 67 344 2.0 4.0 0.00 0.00 0.00 40 1020.5
20220519035017 68 346 1.0 4.0 0.00 0.00 0.00 40 1020.5
20220519034513 68 346 2.0 4.0 0.00 0.00 0.00 39 1020.5
20220519034011 68 347 0.0 5.0 0.00 0.00 0.00 39 1020.4
20220519033523 68 346 2.0 5.0 0.00 0.00 0.00 39 1020.4
20220519033017 69 104 1.0 4.0 0.00 0.00 0.00 38 1020.3
20220519032529 69 105 2.0 4.0 0.00 0.00 0.00 38 1020.4
20220519032022 69 65 1.0 3.0 0.00 0.00 0.00 38 1020.3
20220519031513 69 64 2.0 5.0 0.00 0.00 0.00 38 1020.3
20220519031027 70 67 3.0 5.0 0.00 0.00 0.00 38 1020.2
20220519030520 70 135 2.0 4.0 0.00 0.00 0.00 37 1020.2
20220519030027 70 56 1.0 4.0 0.00 0.00 0.00 37 1020.1
20220519025515 71 355 0.0 4.0 0.00 0.00 0.00 36 1020.1
20220519025027 71 257 0.0 6.0 0.00 0.00 0.00 36 1020.1
20220519024523 71 257 3.0 8.0 0.00 0.00 0.00 36 1020.1
20220519024018 72 243 2.0 8.0 0.00 0.00 0.00 36 1020.1
20220519023512 72 263 1.0 4.0 0.00 0.00 0.00 36 1020.2
20220519023031 72 265 0.0 7.0 0.00 0.00 0.00 35 1020.1
20220519022527 73 265 0.0 12.0 0.00 0.00 0.00 35 1020.0
20220519022023 73 279 8.0 12.0 0.00 0.00 0.00 35 1020.0
20220519021512 74 300 3.0 7.0 0.00 0.00 0.00 34 1019.9
20220519021026 74 342 1.0 10.0 0.00 0.00 0.00 34 1019.8
20220519020523 74 342 3.0 11.0 0.00 0.00 0.00 34 1019.8
20220519020022 75 285 9.0 12.0 0.00 0.00 0.00 33 1019.8
20220519015513 75 323 6.0 9.0 0.00 0.00 0.00 33 1019.8
20220519015029 75 234 5.0 10.0 0.00 0.00 0.00 34 1019.8
20220519014525 75 291 8.0 11.0 0.00 0.00 0.00 33 1019.8
20220519014020 75 321 7.0 11.0 0.00 0.00 0.00 32 1019.6
20220519013531 76 334 5.0 10.0 0.00 0.00 0.00 32 1019.7
20220519013026 76 317 5.0 14.0 0.00 0.00 0.00 32 1019.7
20220519012519 76 336 6.0 15.0 0.00 0.00 0.00 33 1019.6
20220519012014 76 328 10.0 15.0 0.00 0.00 0.00 32 1019.6
20220519011524 76 338 6.0 16.0 0.00 0.00 0.00 32 1019.6
20220519011019 76 306 10.0 16.0 0.00 0.00 0.00 32 1019.6
20220519010513 76 323 9.0 18.0 0.00 0.00 0.00 32 1019.6
20220519010022 76 319 13.0 18.0 0.00 0.00 0.00 31 1019.6
20220519005515 77 317 12.0 15.0 0.00 0.00 0.00 31 1019.6